Main page
Satellite images Climate Cyclones Lightning AirportsFAQ Languages Contact Newsletter About
Weather : Europe Africa North America South America Asia Australia-Oceania Others

, Ranong, Ranong Airport

48532

latitude: , longitude: Thailand, elevation: 09-59N m


METAR: VTSR 241200Z VRB04KT 9999 BKN032 29/22 Q1010 NOSIG